This is the latest recevied weather packets stored in our database for station/object SQ9IWE-13. If no packets are shown the sender has not sent any weather packets the latest 10 day(s).
| Time | Temp. | Humidity | Pressure | Rain* | Wind** | Luminosity | Snow |
|---|---|---|---|---|---|---|---|
| 1777749601 | 16.11° C | 47% | 1020.5 hPa | - | - | - | - |
| 1777749000 | 16.11° C | 47% | 1020.5 hPa | - | - | - | - |
| 1777748400 | 16.67° C | 47% | 1020.3 hPa | - | - | - | - |
| 1777747801 | 16.67° C | 47% | 1020.4 hPa | - | - | - | - |
| 1777746601 | 17.22° C | 45% | 1020.3 hPa | - | - | - | - |
| 1777746001 | 17.78° C | 44% | 1020.3 hPa | - | - | - | - |
| 1777744801 | 18.33° C | 42% | 1020.3 hPa | - | - | - | - |
| 1777744201 | 18.89° C | 42% | 1020.2 hPa | - | - | - | - |
| 1777742401 | 20° C | 41% | 1020.1 hPa | - | - | - | - |
| 1777741801 | 20° C | 40% | 1020 hPa | - | - | - | - |
| 1777741201 | 20° C | 39% | 1020.1 hPa | - | - | - | - |
| 1777740001 | 20.56° C | 39% | 1020.1 hPa | - | - | - | - |
| 1777739401 | 21.11° C | 38% | 1020.2 hPa | - | - | - | - |
| 1777738801 | 21.11° C | 37% | 1020.1 hPa | - | - | - | - |
| 1777738201 | 21.11° C | 37% | 1020.4 hPa | - | - | - | - |
| 1777737001 | 21.11° C | 35% | 1020.5 hPa | - | - | - | - |
| 1777735801 | 21.67° C | 35% | 1020.7 hPa | - | - | - | - |
| 1777735201 | 21.67° C | 35% | 1020.7 hPa | - | - | - | - |
| 1777734601 | 21.67° C | 34% | 1020.8 hPa | - | - | - | - |
| 1777734001 | 21.67° C | 33% | 1020.9 hPa | - | - | - | - |
| 1777733400 | 22.22° C | 34% | 1020.8 hPa | - | - | - | - |
| 1777732801 | 22.22° C | 34% | 1021 hPa | - | - | - | - |
| 1777732200 | 22.22° C | 33% | 1021 hPa | - | - | - | - |
| 1777731600 | 22.22° C | 34% | 1021.1 hPa | - | - | - | - |
| 1777731000 | 21.67° C | 34% | 1021.1 hPa | - | - | - | - |
* Rain since midnight (hover to see other rain measurements)
** Current wind speed in m/s (hover to see current wind gust speed)